Location: Lac Lasalle
(46.0398°N, 74.1576°W)
Time: 18:03:05
(UTC-05:00)

SEEDS - Pass Details

Date: 14 December 2019
Orbit: 586 x 603 km, 97.5° (Epoch: 21 January)

Event Time Altitude Azimuth Distance (km) Brightness Sun altitude
Rises 16:49:29 0° 164° (SSE) 2,802 ? -6.5°
Reaches altitude 10° 16:51:38 10° 164° (SSE) 1,908 ? -6.9°
Maximum altitude 16:55:47 86° 75° (ENE) 597 ? -7.5°
Drops below altitude 10° 16:59:59 10° 348° (NNW) 1,932 ? -8.2°
Sets 17:02:09 0° 348° (NNW) 2,841 ? -8.5°
